Meridian, MS

4:42 AM CST on December 16, 2019 (GMT -0600)
Key

Weather History for KMEI - October, 2019

Change the Weather History Date:

Thursday, October 17, 2019

  Actual Average Record
Temperature  
Mean Temperature 58 °F 64 °F  
Max Temperature 69 °F 77 °F 92 °F (1947)
Min Temperature 46 °F 50 °F 33 °F (1943)
Degree Days  
Heating Degree Days 8 4  
Month to date heating degree days 18 39  
Since 1 July heating degree days 18 46  
Cooling Degree Days 0 2  
Month to date cooling degree days 185 66  
Year to date cooling degree days 2817 1989  
Growing Degree Days 8 (Base 50)    
Moisture  
Dew Point 47 °F    
Average Humidity 75    
Maximum Humidity 93    
Minimum Humidity 42    
Precipitation  
Precipitation 0.00 in 0.12 in 4.47 in (1923)
Month to date precipitation 4.62 1.98  
Year to date precipitation 47.80 44.37  
Sea Level Pressure  
Sea Level Pressure 30.03 in    
Wind  
Wind Speed 3 mph ()    
Max Wind Speed 12 mph    
Max Gust Speed 16 mph    
Visibility 10.0 miles    
Events      
T = Trace of Precipitation, MM = Missing Value Source: Averaged Metar Reports

Daily Weather History Graph

Daily Weather History Graph

Search for Another Location

Airport or City:

Astronomy

Oct. 17, 2019 Rise Set
Actual Time 7:00 AM CDT 6:20 PM CDT
Civil Twilight 6:35 AM CDT 6:44 PM CDT
Nautical Twilight 6:06 AM CDT 7:13 PM CDT
Astronomical Twilight 5:38 AM CDT 7:41 PM CDT
Moon 9:02 PM CDT (10/17) 10:21 AM CDT (10/17)
Length of Visible Light 12h 09m
Length of Day
11h 20m
Waning Gibbous, 86% of the Moon is Illuminated
Oct 17
Waning Gibbous
Oct 21
Last Quarter
Oct 27
New
Nov 4
First Quarter
Nov 12
Full

Hourly Weather History & Observations

Time (CDT) Temp. Windchill Dew Point Humidity Pressure Visibility Wind Dir Wind Speed Gust Speed Precip Events Conditions
12:58 AM 48.9 °F - 46.0 °F 90% 30.04 in 10.0 mi North 5.8 mph - N/A   Clear
1:58 AM 48.9 °F - 46.0 °F 90% 30.05 in 10.0 mi Calm Calm - N/A   Clear
2:58 AM 46.9 °F - 44.1 °F 90% 30.05 in 10.0 mi Calm Calm - N/A   Clear
3:58 AM 46.0 °F 44.8 °F 43.0 °F 89% 30.04 in 10.0 mi NNW 3.5 mph - N/A   Clear
4:58 AM 46.9 °F - 43.0 °F 86% 30.04 in 10.0 mi North 5.8 mph - N/A   Clear
5:58 AM 46.9 °F - 43.0 °F 86% 30.06 in 10.0 mi North 5.8 mph - N/A   Clear
6:58 AM 46.9 °F - 43.0 °F 86% 30.06 in 10.0 mi North 4.6 mph - N/A   Clear
7:58 AM 48.0 °F - 45.0 °F 89% 30.07 in 10.0 mi North 3.5 mph - N/A   Clear
8:58 AM 52.0 °F - 46.9 °F 83% 30.10 in 10.0 mi North 3.5 mph - N/A   Clear
9:58 AM 55.9 °F - 46.9 °F 72% 30.10 in 10.0 mi ENE 6.9 mph - N/A   Clear
10:58 AM 59.0 °F - 46.0 °F 62% 30.08 in 10.0 mi Variable 4.6 mph - N/A   Clear
11:58 AM 62.1 °F - 45.0 °F 53% 30.08 in 10.0 mi NE 4.6 mph - N/A   Clear
12:58 PM 64.9 °F - 46.0 °F 50% 30.05 in 10.0 mi Variable 3.5 mph - N/A   Clear
1:58 PM 66.9 °F - 45.0 °F 45% 30.01 in 10.0 mi Calm Calm - N/A   Clear
2:58 PM 68.0 °F - 45.0 °F 43% 29.99 in 10.0 mi Variable 5.8 mph - N/A   Clear
3:58 PM 68.0 °F - 46.0 °F 45% 29.99 in 10.0 mi NNW 8.1 mph - N/A   Clear
4:58 PM 66.0 °F - 46.9 °F 50% 29.98 in 10.0 mi NNW 5.8 mph - N/A   Clear
5:58 PM 62.1 °F - 52.0 °F 70% 29.97 in 10.0 mi Calm Calm - N/A   Clear
6:58 PM 57.9 °F - 53.1 °F 84% 29.98 in 10.0 mi Calm Calm - N/A   Clear
7:58 PM 55.9 °F - 52.0 °F 87% 29.99 in 10.0 mi Calm Calm - N/A   Clear
9:58 PM 54.0 °F - 51.1 °F 90% 30.00 in 10.0 mi Calm Calm - N/A   Clear
10:58 PM 52.0 °F - 48.9 °F 89% 30.00 in 10.0 mi Calm Calm - N/A   Clear
11:58 PM 52.0 °F - 48.9 °F 89% 30.00 in 10.0 mi Calm Calm - N/A   Clear